Lid_Strength_Index
-1 -1 -1 3 7 7 10 10 9 10 9 7 7 7 6 5 6 9 1 0 -0 -0 -1 -1 -1 -1 -1 -2 -1 -1 -2 -2 -1 -1 -1 -1 -1 -2 -2 -2 -2 -2 -2 -2 -2 -2 -2 -2 -2
-1 -0 1 4 9 11 10 8 10 9 8 6 5 5 6 7 4 4 2 0 -1 -1 -1 -1 -1 -1 -1 -1 -1 -1 -1 -1 -1 -1 -1 -1 -1 -2 -2 -2 -2 -2 -2 -2 -2 -2 -2 -2 -2
-0 0 4 7 9 10 10 8 7 7 7 6 6 4 5 6 4 3 0 -0 -1 -1 -1 -1 -1 -1 -1 -1 -1 -1 -1 -1 -2 -2 -1 -1 -1 -2 -2 -2 -2 -2 -2 -2 -2 -2 -2 -2 -1
1 2 3 9 11 8 8 7 6 7 7 7 5 7 4 2 3 1 -0 -0 -0 -1 -1 -1 -1 -1 -1 -1 -2 -1 -1 -1 -1 -1 -1 -1 -1 -1 -2 -2 -2 -2 -2 -2 -2 -2 -2 -2 -1
1 3 8 9 9 8 7 6 6 6 7 8 5 7 6 3 1 0 0 -0 0 -0 -1 -1 -1 -1 -1 -2 -2 -1 -1 -1 -1 -1 -1 -1 -1 -1 -2 -2 -2 -2 -2 -2 -2 -1 -1 -2 -1
6 4 10 11 10 8 7 6 6 6 7 5 6 6 6 2 2 1 -0 -0 -1 -0 -1 -1 -1 -1 -1 -2 -2 -2 -1 -1 -1 -1 -2 -2 -1 -1 -2 -1 -1 -1 -1 -2 -2 -1 -1 -1 -2
7 8 10 10 10 9 8 5 6 6 7 6 5 7 5 4 2 1 0 -0 -0 -1 -1 -1 -1 -1 -1 -2 -2 -2 -2 -1 -1 -2 -2 -2 -1 -2 -2 -1 -1 -1 -1 -1 -1 -1 -1 -1 -1
5 7 10 10 11 10 7 6 5 6 6 3 4 7 7 4 2 1 1 0 -0 -0 -0 -1 -1 -1 -1 -1 -1 -2 -2 -1 -1 -2 -1 -0 -1 -1 -2 -2 -1 -1 -1 -1 -1 -1 -1 -1 -1
4 10 12 10 10 9 6 7 5 4 5 5 5 5 3 2 1 2 2 1 1 0 -0 -1 -1 -1 -1 -1 -1 -1 -2 -1 -1 -1 -0 -1 -1 -1 -1 -1 -1 -1 -1 -1 -1 -1 -1 -1 -2
7 11 10 7 6 7 7 7 6 6 6 6 5 4 4 2 3 3 3 3 2 2 1 -0 -1 -1 -1 -1 -1 -1 -1 -2 -1 -1 -1 -2 -1 -2 -1 -1 -1 -1 -1 -1 -1 -1 -1 -1 -2
7 11 7 6 6 6 7 7 5 6 7 6 6 5 7 4 3 3 3 2 2 1 1 -0 -0 -1 -1 -1 -1 -1 -1 -1 -1 -1 -1 -1 -1 -1 -2 -2 -1 -2 -1 -1 -1 -1 -2 -1 -2
9 7 7 6 5 6 7 6 7 6 6 4 4 4 7 4 4 4 3 2 2 2 1 0 -0 -1 -1 -1 -1 -1 -1 -1 -1 -1 -1 -1 -1 -1 -1 -1 -2 -1 -2 -1 -1 -1 -1 -1 -1
8 7 6 5 6 6 6 7 7 6 4 3 3 4 4 4 4 3 2 2 1 2 1 0 -0 -0 -1 -1 -1 -1 -1 -1 -1 -1 -1 -1 -1 -1 -1 -1 -1 -1 -2 -1 -1 -1 -1 -1 -1
6 7 6 6 6 6 7 7 6 6 4 4 4 4 5 4 3 3 3 2 2 1 1 0 -0 -1 -1 -0 -1 -1 -1 -1 -1 -1 -1 -1 -1 -1 -1 -1 -1 -1 -1 -1 -1 -1 -1 -1 -1
6 9 8 7 7 7 6 9 8 5 5 5 4 4 5 6 6 3 2 2 2 1 1 0 0 -1 -0 -0 -1 -1 -1 -1 -1 -1 -1 -1 -1 -1 -1 -1 -1 -0 -1 -1 -1 -1 -1 -1 -1
9 8 13 8 7 7 7 12 7 5 5 5 4 4 5 5 6 6 3 2 1 1 1 0 -0 -0 -0 -0 -1 -1 -1 -1 -1 -1 -1 -1 -1 -1 -1 -1 -1 -1 -0 -0 -0 -0 -0 -0 -0
10 13 12 11 7 8 9 10 7 5 5 6 5 4 5 5 5 5 6 5 1 1 1 1 0 0 -0 -0 -1 -1 -1 -1 -1 -1 -1 -1 -1 -1 -1 -1 -1 -1 -1 -1 -0 -0 -0 0 0
13 12 11 12 10 9 10 10 8 6 6 6 5 4 4 5 5 4 5 6 6 1 1 1 0 0 -0 -0 -0 -0 -0 -1 -1 -1 -1 -1 -1 -1 -1 -1 -1 -1 -0 -0 -0 0 -0 0 0
9 10 12 10 9 10 10 10 8 7 6 6 5 5 4 5 3 4 4 5 6 6 4 1 1 0 0 0 1 1 1 0 -0 -1 -1 -1 -1 -1 -1 -1 -1 -1 -0 -0 -0 0 1 1 0
10 11 12 10 9 10 10 11 8 7 6 6 6 5 5 4 4 4 4 5 5 4 4 4 2 0 0 0 0 0 0 -0 -0 -1 -1 -1 -1 -1 -1 -1 -0 -0 0 0 0 0 1 1 0
10 11 11 12 10 9 10 12 10 7 6 6 6 5 5 4 4 4 4 5 4 4 4 4 3 3 4 3 3 3 3 3 2 1 0 4 4 3 2 1 1 0 0 1 0 0 1 2 1
13 8 10 11 12 14 9 14 11 9 8 7 6 6 6 5 4 4 6 6 5 4 3 3 3 3 4 4 4 4 2 2 3 3 3 3 3 2 2 1 1 -0 -0 0 0 -0 0 1 2
11 8 9 10 11 12 12 14 10 9 10 8 7 6 6 5 4 6 6 6 5 4 4 4 4 4 4 3 4 4 4 4 4 4 4 3 3 3 3 2 2 1 1 -0 -0 0 0 1 1
8 9 10 10 11 16 12 13 12 10 9 8 6 6 6 5 5 5 5 5 5 4 4 4 4 5 4 4 4 4 4 4 4 4 4 4 3 3 4 4 3 3 2 2 1 1 1 1 1
9 11 17 18 18 17 12 14 11 8 7 7 6 6 4 5 4 5 6 6 5 5 5 5 5 5 5 4 4 4 4 4 4 4 4 5 4 4 5 5 5 4 4 3 2 2 1 0 1
11 11 15 19 18 16 12 15 11 7 6 6 6 6 6 6 5 5 5 5 5 5 5 5 5 6 5 5 5 5 5 5 5 6 5 6 6 6 6 6 6 6 5 5 3 1 -0 0 1
11 13 10 14 14 15 13 11 8 8 7 7 7 7 7 6 6 6 6 5 5 5 5 5 5 6 6 6 6 6 6 6 6 7 6 7 7 7 7 7 7 7 6 5 4 2 2 2 3
10 8 14 14 19 19 14 13 12 9 8 7 7 8 7 6 6 6 6 5 5 5 5 5 5 6 6 6 6 7 7 7 7 7 8 8 8 8 8 7 7 7 6 5 5 4 4 4 5
11 12 12 11 13 16 16 13 8 8 8 8 7 6 6 6 5 5 5 4 5 5 5 6 6 6 6 7 7 8 8 8 8 8 8 8 8 8 8 8 8 8 7 6 6 6 6 6 6
10 11 11 15 16 14 14 13 8 8 8 8 7 6 6 5 5 4 4 4 4 5 6 6 6 7 7 7 7 8 8 8 8 9 9 9 9 8 8 8 8 8 8 7 7 8 8 7 7